Weather History for KMEZ - April, 2014

Change the Weather History Date:

Thursday, April 3, 2014

  Actual Average (KFSM) Record (KFSM)
Temperature  
Mean Temperature 73 °F -  
Max Temperature 77 °F 68 °F 89 °F (2011)
Min Temperature 69 °F 46 °F 22 °F (1975)
Cooling Degree Days 8    
Growing Degree Days 23 (Base 50)    
Moisture  
Dew Point 69 °F    
Average Humidity 88    
Maximum Humidity 100    
Minimum Humidity 61    
Precipitation  
Precipitation 0.48 in - - ()
Sea Level Pressure  
Sea Level Pressure 29.75 in    
Wind  
Wind Speed 10 mph (South)    
Max Wind Speed 15 mph    
Max Gust Speed 28 mph    
Visibility 8 miles    
Events Rain , Thunderstorm    
Averages and records for this station are not official NWS values.
T = Trace of Precipitation, MM = Missing Value Source: NWS Daily Summary

Daily Weather History Graph

Daily Weather History Graph

Search for Another Location

Airport or City:

Trip Planner

Search our weather history database for the weather conditions in past years. The results will help you decide how hot, cold, wet, or windy it might be!

Date:

Astronomy

Apr. 03, 2014 Rise Set
Actual Time 7:01 AM CDT 7:39 PM CDT
Civil Twilight 6:35 AM CDT 8:04 PM CDT
Nautical Twilight 6:05 AM CDT 8:34 PM CDT
Astronomical Twilight 5:35 AM CDT 9:05 PM CDT
Moon 9:39 AM CDT (4/3) 11:51 PM CDT (4/3)
Length of Visible Light 13h 29m
Length of Day
12h 38m
Waxing Crescent, 17% of the Moon is Illuminated
Apr 3
Waxing Crescent
Apr 7
First Quarter
Apr 15
Full
Apr 22
Last Quarter
Apr 29
New

Hourly Weather History & Observations

Time (CDT) Temp. Dew Point Humidity Pressure Visibility Wind Dir Wind Speed Gust Speed Precip Events Conditions
12:15 AM - - N/A% 29.80 in 10.0 mi SSE 15.0 mph 26.5 mph N/A   Overcast
12:55 AM - - N/A% 29.79 in 10.0 mi South 11.5 mph 20.7 mph N/A   Overcast
1:15 AM - - N/A% 29.78 in 10.0 mi SSE 9.2 mph 19.6 mph N/A   Overcast
1:35 AM - - N/A% 29.78 in 10.0 mi South 13.8 mph 27.6 mph N/A   Drizzle
1:55 AM - - N/A% 29.77 in 10.0 mi SSE 11.5 mph 18.4 mph N/A   Drizzle
2:15 AM - - N/A% 29.77 in 10.0 mi South 9.2 mph 23.0 mph N/A   Drizzle
2:35 AM - - N/A% 29.76 in 10.0 mi South 5.8 mph 24.2 mph N/A   Overcast
2:55 AM - - N/A% 29.76 in 10.0 mi SSW 10.4 mph 23.0 mph N/A   Overcast
3:15 AM - - N/A% 29.76 in 10.0 mi SSW 11.5 mph 20.7 mph N/A Rain Rain
3:35 AM - - N/A% 29.76 in 10.0 mi SSW 12.7 mph 24.2 mph N/A   Overcast
3:55 AM - - N/A% 29.75 in 10.0 mi SSW 15.0 mph 21.9 mph 0.01 in Rain , Thunderstorm Light Thunderstorms and Rain
4:15 AM 71.6 °F 71.6 °F 100% 29.74 in 10.0 mi South 10.4 mph 20.7 mph N/A Thunderstorm Unknown
4:35 AM 73.4 °F 71.6 °F 94% 29.75 in 10.0 mi SSW 9.2 mph 21.9 mph N/A   Overcast
4:55 AM 73.4 °F 71.6 °F 94% 29.75 in 10.0 mi South 9.2 mph 19.6 mph N/A   Overcast
5:15 AM 71.6 °F 71.6 °F 100% 29.77 in 7.0 mi SSW 8.1 mph 21.9 mph N/A   Overcast
5:35 AM 71.6 °F 71.6 °F 100% 29.77 in 7.0 mi South 6.9 mph - N/A Rain Light Rain
5:55 AM 71.6 °F 71.6 °F 100% 29.77 in 10.0 mi South 5.8 mph - N/A   Overcast
6:15 AM 73.4 °F 71.6 °F 94% 29.77 in 10.0 mi SSW 8.1 mph 19.6 mph N/A   Overcast
6:35 AM 73.4 °F 71.6 °F 94% 29.76 in 7.0 mi South 12.7 mph 19.6 mph N/A Rain Light Rain
6:55 AM 71.6 °F 71.6 °F 100% 29.78 in 5.0 mi South 6.9 mph 20.7 mph 0.01 in   Heavy Drizzle
7:15 AM 71.6 °F - N/A% 29.78 in 5.0 mi SSW 9.2 mph - 0.02 in   Drizzle
7:35 AM 71.6 °F 71.6 °F 100% 29.78 in 5.0 mi SSW 10.4 mph 19.6 mph 0.02 in   Light Drizzle
7:55 AM 71.6 °F 71.6 °F 100% 29.78 in 5.0 mi South 8.1 mph - 0.02 in   Overcast
8:15 AM 73.4 °F 73.4 °F 100% 29.78 in 5.0 mi South 5.8 mph 18.4 mph N/A Rain Light Rain
8:35 AM 73.4 °F 73.4 °F 100% 29.77 in 5.0 mi SSE 9.2 mph 17.3 mph N/A   Light Drizzle
8:55 AM 71.6 °F 71.6 °F 100% 29.77 in 5.0 mi South 12.7 mph 18.4 mph N/A   Light Drizzle
9:15 AM 73.4 °F 73.4 °F 100% 29.78 in 5.0 mi South 11.5 mph 20.7 mph N/A Rain , Thunderstorm Thunderstorms and Rain
9:35 AM 71.6 °F 71.6 °F 100% 29.77 in 7.0 mi SSW 6.9 mph - 0.04 in Thunderstorm Overcast
9:55 AM 71.6 °F 71.6 °F 100% 29.78 in 7.0 mi SE 9.2 mph - 0.04 in Thunderstorm Overcast
10:15 AM 71.6 °F 71.6 °F 100% 29.79 in 7.0 mi South 6.9 mph - N/A   Overcast
10:35 AM 71.6 °F 71.6 °F 100% 29.80 in 5.0 mi South 5.8 mph - 0.03 in Rain , Thunderstorm Light Thunderstorms and Rain
10:55 AM 71.6 °F 71.6 °F 100% 29.80 in 7.0 mi SSW 4.6 mph - 0.04 in Rain Light Rain
11:15 AM 71.6 °F 71.6 °F 100% 29.80 in 7.0 mi South 11.5 mph 20.7 mph N/A Thunderstorm Overcast
11:35 AM 71.6 °F 71.6 °F 100% 29.81 in 3.0 mi South 10.4 mph 24.2 mph 0.13 in Rain , Thunderstorm Heavy Thunderstorms and Rain
11:55 AM 69.8 °F 69.8 °F 100% 29.81 in 7.0 mi SSW 6.9 mph - 0.24 in Rain , Thunderstorm Thunderstorms and Rain
12:15 PM 69.8 °F 69.8 °F 100% 29.80 in 4.0 mi SSW 4.6 mph - 0.04 in Rain , Thunderstorm Light Thunderstorms and Rain
12:35 PM 69.8 °F 69.8 °F 100% 29.79 in 7.0 mi Calm Calm - 0.06 in Rain , Thunderstorm Light Thunderstorms and Rain
12:55 PM 71.6 °F 71.6 °F 100% 29.79 in 7.0 mi SSE 5.8 mph - 0.06 in   Overcast
1:15 PM 71.6 °F 71.6 °F 100% 29.81 in 7.0 mi South 8.1 mph 17.3 mph N/A Rain Light Rain
1:35 PM 69.8 °F 69.8 °F 100% 29.74 in 7.0 mi ESE 5.8 mph - N/A   Drizzle
1:55 PM 71.6 °F 71.6 °F 100% 29.76 in 7.0 mi South 5.8 mph - N/A   Mostly Cloudy
2:15 PM 71.6 °F 71.6 °F 100% 29.76 in 10.0 mi South 8.1 mph 17.3 mph N/A Rain Light Rain
2:35 PM 73.4 °F 64.4 °F 73% 29.75 in 10.0 mi South 8.1 mph 17.3 mph N/A   Scattered Clouds
2:55 PM - - N/A% 29.73 in 10.0 mi South 6.9 mph 21.9 mph 0.01 in   Scattered Clouds
3:15 PM - - N/A% 29.74 in 7.0 mi South 9.2 mph - N/A Rain , Thunderstorm Light Thunderstorms and Rain
3:35 PM - - N/A% 29.71 in 10.0 mi SSE 5.8 mph - N/A   Scattered Clouds
3:55 PM - - N/A% 29.74 in 10.0 mi South 13.8 mph 20.7 mph N/A   Scattered Clouds
4:15 PM 75.2 °F 64.4 °F 69% 29.73 in 7.0 mi South 9.2 mph 18.4 mph N/A Rain Light Rain
4:35 PM 77.0 °F 64.4 °F 65% 29.71 in 10.0 mi South 6.9 mph - N/A   Mostly Cloudy
4:55 PM 77.0 °F 64.4 °F 65% 29.71 in 10.0 mi South 6.9 mph - N/A   Scattered Clouds
5:15 PM 77.0 °F 62.6 °F 61% 29.71 in 10.0 mi South 5.8 mph - N/A   Clear
5:35 PM - - N/A% 29.69 in 10.0 mi South 4.6 mph - N/A   Clear
5:55 PM - - N/A% 29.72 in 10.0 mi SSW 8.1 mph - N/A   Scattered Clouds
6:15 PM 75.2 °F 64.4 °F 69% 29.70 in 7.0 mi SSW 5.8 mph 19.6 mph 0.02 in Rain , Thunderstorm Light Thunderstorms and Rain
6:35 PM 75.2 °F 62.6 °F 65% 29.70 in 10.0 mi South 4.6 mph - 0.02 in   Clear
6:55 PM 77.0 °F 62.6 °F 61% 29.69 in 10.0 mi SSE 8.1 mph - 0.02 in   Scattered Clouds
7:15 PM 77.0 °F 62.6 °F 61% 29.68 in 10.0 mi South 9.2 mph 19.6 mph N/A   Scattered Clouds
7:35 PM 77.0 °F 62.6 °F 61% 29.70 in 10.0 mi South 12.7 mph 23.0 mph N/A   Clear
7:55 PM 75.2 °F 62.6 °F 65% 29.68 in 10.0 mi South 11.5 mph 20.7 mph N/A   Scattered Clouds
8:15 PM 75.2 °F 62.6 °F 65% 29.71 in 10.0 mi South 4.6 mph - N/A   Scattered Clouds
8:55 PM 75.2 °F 62.6 °F 65% 29.71 in 10.0 mi South 10.4 mph 19.6 mph N/A   Scattered Clouds
9:15 PM 75.2 °F 62.6 °F 65% 29.70 in 10.0 mi South 12.7 mph 21.9 mph N/A   Scattered Clouds
9:35 PM - - N/A% 29.73 in 10.0 mi South 9.2 mph 20.7 mph N/A   Mostly Cloudy
11:15 PM - - N/A% 29.70 in 10.0 mi SSE 12.7 mph 26.5 mph 0.02 in Rain , Thunderstorm Light Thunderstorms and Rain
11:35 PM 71.6 °F 64.4 °F 78% 29.72 in 10.0 mi WSW 9.2 mph 19.6 mph 0.03 in   Scattered Clouds
11:55 PM - - N/A% 29.77 in 10.0 mi WSW 15.0 mph 23.0 mph 0.03 in Thunderstorm Scattered Clouds